Retour au catalogue

STARLINK-4345

ActifCommunicationsSSO
NORAD 53049·PAYLOAD·🇺🇸 United States

Lancé Jul 11, 2022 depuis Vandenberg Space Force Base

Loading…

Prochains Passages (prochaines 24 heures)

TLE

FraisSource: CelesTrak SupGP

Époque: Sep 14, 2026, 21:01 UTC

1 53049C 22077G   26257.87618056  .00086481  00000+0  26846-2 0  2573
2 53049  97.2852  72.7368 0001556  94.3794 323.4946 15.33395201    16

Suivez STARLINK-4345 en temps réel avec AllMySat

Download on the App Store